TimeMDT,TemperatureF,Dew PointF,Humidity,Sea Level PressureIn,VisibilityMPH,Wind Direction,Wind SpeedMPH,Gust SpeedMPH,PrecipitationIn,Events,Conditions,WindDirDegrees,DateUTC
12:15 AM,66.2,24.8,21,29.73,10.0,West,23.0,26.5,N/A,,Clear,270,2012-10-17 06:15:00
12:35 AM,66.2,24.8,21,29.72,10.0,West,19.6,29.9,N/A,,Clear,260,2012-10-17 06:35:00
12:55 AM,66.2,24.8,21,29.73,10.0,West,23.0,31.1,N/A,,Clear,270,2012-10-17 06:55:00
1:15 AM,66.2,24.8,21,29.73,10.0,West,23.0,-,N/A,,Clear,270,2012-10-17 07:15:00
1:35 AM,64.4,24.8,22,29.73,10.0,West,20.7,27.6,N/A,,Clear,270,2012-10-17 07:35:00
1:55 AM,64.4,24.8,22,29.74,10.0,West,17.3,-,N/A,,Clear,270,2012-10-17 07:55:00
2:15 AM,64.4,26.6,24,29.74,10.0,West,16.1,-,N/A,,Clear,260,2012-10-17 08:15:00
2:35 AM,64.4,24.8,22,29.74,10.0,West,16.1,-,N/A,,Clear,260,2012-10-17 08:35:00
2:55 AM,64.4,24.8,22,29.73,10.0,WSW,17.3,24.2,N/A,,Clear,250,2012-10-17 08:55:00
3:15 AM,64.4,24.8,22,29.73,10.0,West,18.4,-,N/A,,Clear,260,2012-10-17 09:15:00
3:35 AM,64.4,24.8,22,29.73,10.0,West,15.0,-,N/A,,Clear,260,2012-10-17 09:35:00
3:55 AM,60.8,24.8,25,29.73,10.0,WSW,12.7,-,N/A,,Clear,240,2012-10-17 09:55:00
4:15 AM,60.8,26.6,27,29.74,10.0,West,9.2,-,N/A,,Clear,270,2012-10-17 10:15:00
4:35 AM,59.0,24.8,27,29.74,10.0,West,12.7,-,N/A,,Clear,260,2012-10-17 10:35:00
4:55 AM,59.0,24.8,27,29.74,10.0,West,13.8,-,N/A,,Clear,270,2012-10-17 10:55:00
5:15 AM,59.0,24.8,27,29.74,10.0,West,15.0,-,N/A,,Clear,270,2012-10-17 11:15:00
5:35 AM,59.0,24.8,27,29.74,10.0,West,13.8,-,N/A,,Clear,270,2012-10-17 11:35:00
5:55 AM,57.2,24.8,29,29.75,10.0,West,11.5,-,N/A,,Clear,270,2012-10-17 11:55:00
6:15 AM,57.2,24.8,29,29.75,10.0,West,15.0,-,N/A,,Clear,270,2012-10-17 12:15:00
6:35 AM,57.2,24.8,29,29.76,10.0,WNW,9.2,-,N/A,,Clear,290,2012-10-17 12:35:00
6:55 AM,57.2,24.8,29,29.77,10.0,West,12.7,-,N/A,,Clear,280,2012-10-17 12:55:00
7:15 AM,57.2,24.8,29,29.78,10.0,West,11.5,-,N/A,,Clear,260,2012-10-17 13:15:00
7:35 AM,57.2,24.8,29,29.83,10.0,NNE,8.1,-,N/A,,Clear,30,2012-10-17 13:35:00
7:55 AM,57.2,26.6,31,29.84,10.0,Calm,Calm,-,N/A,,Clear,0,2012-10-17 13:55:00
8:15 AM,60.8,26.6,27,29.85,10.0,NNE,5.8,-,N/A,,Clear,20,2012-10-17 14:15:00
8:35 AM,62.6,30.2,30,29.87,10.0,ENE,10.4,-,N/A,,Clear,60,2012-10-17 14:35:00
8:55 AM,64.4,32.0,30,29.87,10.0,ENE,6.9,-,N/A,,Clear,70,2012-10-17 14:55:00
9:15 AM,64.4,33.8,32,29.88,10.0,ENE,10.4,-,N/A,,Clear,60,2012-10-17 15:15:00
9:35 AM,66.2,33.8,30,29.89,10.0,NE,10.4,-,N/A,,Clear,50,2012-10-17 15:35:00
9:55 AM,66.2,32.0,28,29.89,10.0,NE,8.1,-,N/A,,Clear,50,2012-10-17 15:55:00
10:15 AM,68.0,30.2,24,29.89,10.0,East,9.2,-,N/A,,Clear,80,2012-10-17 16:15:00
10:35 AM,69.8,30.2,23,29.89,10.0,ENE,8.1,-,N/A,,Clear,60,2012-10-17 16:35:00
10:55 AM,69.8,32.0,25,29.89,10.0,NE,12.7,-,N/A,,Clear,50,2012-10-17 16:55:00
11:15 AM,71.6,32.0,23,29.89,10.0,East,3.5,-,N/A,,Clear,90,2012-10-17 17:15:00
11:35 AM,71.6,32.0,23,29.88,10.0,SE,5.8,-,N/A,,Clear,140,2012-10-17 17:35:00
11:55 AM,71.6,30.2,22,29.89,10.0,ENE,3.5,-,N/A,,Clear,60,2012-10-17 17:55:00
12:15 PM,73.4,32.0,22,29.88,10.0,SE,4.6,-,N/A,,Clear,130,2012-10-17 18:15:00
12:35 PM,73.4,32.0,22,29.88,10.0,ENE,9.2,-,N/A,,Clear,70,2012-10-17 18:35:00
12:55 PM,75.2,32.0,21,29.87,10.0,ENE,6.9,-,N/A,,Clear,60,2012-10-17 18:55:00
1:15 PM,75.2,33.8,22,29.87,10.0,East,10.4,17.3,N/A,,Clear,80,2012-10-17 19:15:00
1:35 PM,75.2,33.8,22,29.87,10.0,ENE,11.5,23.0,N/A,,Clear,70,2012-10-17 19:35:00
1:55 PM,75.2,33.8,22,29.86,10.0,ENE,11.5,19.6,N/A,,Clear,70,2012-10-17 19:55:00
2:15 PM,75.2,33.8,22,29.86,10.0,East,15.0,20.7,N/A,,Clear,80,2012-10-17 20:15:00
2:35 PM,75.2,33.8,22,29.85,10.0,East,16.1,-,N/A,,Clear,80,2012-10-17 20:35:00
2:55 PM,75.2,33.8,22,29.85,10.0,East,13.8,24.2,N/A,,Clear,80,2012-10-17 20:55:00
3:15 PM,75.2,33.8,22,29.84,10.0,East,16.1,24.2,N/A,,Clear,80,2012-10-17 21:15:00
3:35 PM,75.2,33.8,22,29.84,10.0,East,16.1,24.2,N/A,,Clear,100,2012-10-17 21:35:00
3:55 PM,75.2,33.8,22,29.84,10.0,ENE,19.6,24.2,N/A,,Clear,70,2012-10-17 21:55:00
4:15 PM,73.4,33.8,23,29.84,10.0,ENE,20.7,26.5,N/A,,Clear,70,2012-10-17 22:15:00
4:35 PM,73.4,32.0,22,29.84,10.0,ENE,19.6,-,N/A,,Clear,70,2012-10-17 22:35:00
4:55 PM,71.6,32.0,23,29.85,10.0,ENE,15.0,-,N/A,,Clear,70,2012-10-17 22:55:00
5:15 PM,71.6,32.0,23,29.85,10.0,East,18.4,-,N/A,,Clear,80,2012-10-17 23:15:00
5:35 PM,68.0,32.0,26,29.86,10.0,East,15.0,23.0,N/A,,Clear,80,2012-10-17 23:35:00
5:55 PM,66.2,32.0,28,29.87,10.0,ENE,15.0,-,N/A,,Clear,70,2012-10-17 23:55:00
6:15 PM,64.4,30.2,28,29.87,10.0,East,12.7,-,N/A,,Clear,80,2012-10-18 00:15:00
6:35 PM,62.6,30.2,30,29.89,10.0,ENE,9.2,-,N/A,,Clear,70,2012-10-18 00:35:00
6:55 PM,60.8,32.0,34,29.90,10.0,NE,6.9,-,N/A,,Clear,40,2012-10-18 00:55:00
7:15 PM,59.0,30.2,34,29.91,10.0,NE,9.2,-,N/A,,Clear,40,2012-10-18 01:15:00
7:35 PM,57.2,30.2,36,29.91,10.0,NE,8.1,-,N/A,,Clear,50,2012-10-18 01:35:00
7:55 PM,57.2,30.2,36,29.91,10.0,East,9.2,-,N/A,,Clear,80,2012-10-18 01:55:00
8:15 PM,55.4,30.2,38,29.91,10.0,East,12.7,-,N/A,,Clear,90,2012-10-18 02:15:00
8:35 PM,55.4,30.2,38,29.92,10.0,East,11.5,-,N/A,,Clear,90,2012-10-18 02:35:00
8:55 PM,53.6,30.2,41,29.94,10.0,East,3.5,-,N/A,,Clear,80,2012-10-18 02:55:00
9:15 PM,51.8,28.4,41,29.94,10.0,East,8.1,-,N/A,,Clear,80,2012-10-18 03:15:00
9:35 PM,51.8,28.4,41,29.95,10.0,East,6.9,-,N/A,,Clear,90,2012-10-18 03:35:00
9:55 PM,50.0,28.4,43,29.96,10.0,East,6.9,-,N/A,,Clear,80,2012-10-18 03:55:00
10:15 PM,48.2,28.4,46,29.97,10.0,East,9.2,-,N/A,,Clear,80,2012-10-18 04:15:00
10:35 PM,48.2,28.4,46,29.98,10.0,NNE,8.1,-,N/A,,Clear,30,2012-10-18 04:35:00
10:55 PM,46.4,28.4,50,29.98,10.0,NNW,3.5,-,N/A,,Clear,340,2012-10-18 04:55:00
11:15 PM,46.4,28.4,50,29.98,10.0,NNE,4.6,-,N/A,,Clear,30,2012-10-18 05:15:00
11:35 PM,46.4,28.4,50,29.99,10.0,East,5.8,-,N/A,,Clear,90,2012-10-18 05:35:00
11:55 PM,44.6,28.4,53,29.99,10.0,East,5.8,-,N/A,,Clear,100,2012-10-18 05:55:00